Regional Weather Roundup
Issued by NWS Northern Indiana

Home | Current Version | Previous Version | Text Only | Print | Product List | Glossary On
Versions: 1 2 3 4 5 6 7 8 9 10 11 12 13 14 15 16 17 18 19 20 21 22 23 24 25 26 27 28 29 30 31 32 33 34 35 36 37 38 39 40 41 42 43 44 45 46 47 48 49 50
000
ASUS43 KIWX 140700
RWRIWX

KIWX WEATHER ROUNDUP
NATIONAL WEATHER SERVICE NORTHERN INDIANA
200 AM EST THU DEC 14 2017

NOTE: "FAIR" INDICATES FEW OR NO CLOUDS BELOW 12,000 FEET WITH NO
SIGNIFICANT WEATHER AND/OR OBSTRUCTIONS TO VISIBILITY.

* THESE STATIONS ARE NOT UNDER NWS QUALITY CONTROL. THEY ALSO MAY NOT
  REPORT WEATHER SUCH AS PRECIPITATION OR FOG.

INZ001>027-140800-
NORTHERN INDIANA

CITY           SKY/WX    TMP DP  RH WIND       PRES   REMARKS
MICHIGAN CITY* CLOUDY    28  19  69 N14G22    29.78R WCI  17
LAPORTE*       CLOUDY    27  20  76 N18       29.76R WCI  13
KNOX*          CLOUDY    28  23  80 N14       29.75R WCI  17
SOUTH BEND     CLEAR     18  14  84 N13       29.77R WCI   5
GOSHEN         MOCLDY    19  14  81 N13       29.73R WCI   6
MONTICELLO*    CLOUDY    29  19  66 N20G26    29.76R WCI  17
WARSAW*        CLOUDY    21  16  79 NW7       29.73R WCI  13
AUBURN*        MOCLDY    21  16  79 NW9G20    29.68R WCI  11
FORT WAYNE     MOCLDY    22  16  78 N18G25    29.70R WCI   7
PERU/GRISSOM   MOCLDY    27  19  71 N15G23    29.73R WCI  15

$$
INZ028>050-140800-
CENTRAL INDIANA

CITY           SKY/WX    TMP DP  RH WIND       PRES   REMARKS
LAFAYETTE      CLOUDY    29  21  72 NW15G21   29.79R WCI  18
KOKOMO*        CLOUDY    28  20  71 N17       29.74R WCI  16
MUNCIE*        CLOUDY    30  22  72 NW17G26   29.69R WCI  18
INDIANAPOLIS   MOCLDY    29  19  66 NW17G24   29.76R WCI  17

$$
MIZ043>046-050>051-056>058-064>065-071>073-077>080-140800-
SOUTHWEST LOWER MICHIGAN

CITY           SKY/WX    TMP DP  RH WIND       PRES   REMARKS
BATTLE CREEK   CLOUDY    18  13  80 N15       29.72R WCI   4
BENTON HARBOR  CLOUDY    21  13  71 N8        29.79R WCI  11
COLDWATER*     CLOUDY    20  16  84 N18       29.70R WCI   4
HILLSDALE*     CLOUDY    19  14  79 N13       29.64R WCI   7
HOLLAND        CLEAR     16  10  77 N7        29.80R WCI   6
GRAND RAPIDS   CLEAR     15   9  76 N12       29.76R WCI   2
KALAMAZOO      CLOUDY    19  13  77 N15       29.74R WCI   5
STURGIS*       CLOUDY    19  15  86 N15G21    29.71R WCI   5
THREE RIVERS*  CLOUDY    21  16  81 N8G17     29.74R WCI  11

$$
OHZ001>008-015>018-024>025-140800-
NORTHWEST OHIO

CITY           SKY/WX    TMP DP  RH WIND       PRES   REMARKS
DEFIANCE       CLEAR     20  14  77 NW12      29.67R WCI   8
FINDLAY        FLURRIES  25  20  81 NW14      29.60R WCI  13
TOLEDO EXPRESS LGT SNOW  21  19  92 NW12      29.63R FOG     WCI   9
TOLEDO METCALF LGT SNOW  22  17  81 N13G22    29.63R WCI  10
LIMA           CLOUDY    24  20  84 NW16      29.62R WCI  11

$$
AND FOR LAKE MICHIGAN COASTAL AND OPEN LAKE BUOY OBSERVATIONS

STATION/POSITION TEMP    WIND        PRES    VSBY  WAVE
                 AIR SEA DIR/SP/G                  HT/PER
                 (F)     (DEG/KT/KT) (MB)    (MI)  (FT/S)
CALUMET HARBOR    29     340/ 20/ 28 1008.7R
MICHIGAN CITY     28     360/ 30/ 35   N/A
BURNS HARBOR      30      10/ 22/ 31 1008.8R
SAINT JOSEPH      25      40/  7/ 14 1007.8

$$
&&




USA.gov is the U.S. government's official web portal to all federal, state and local government web resources and services.